Regional Weather Roundup
Issued by NWS

Home | Current Version | Previous Version | Text Only | Print | Product List | Glossary On
Versions: 1 2 3 4 5 6 7 8 9 10 11 12 13 14 15 16 17 18 19 20 21 22 23 24 25 26 27 28 29 30 31 32 33 34 35 36 37 38 39 40 41 42 43 44 45 46 47 48 49 50
000
ASUS43 KLMK 181210
RWRKY
NATIONAL WEATHER SERVICE LOUISVILLE KY
700 AM EST SAT NOV 18 2017

NOTE "FAIR" INDICATES FEW OR NO CLOUDS BELOW 12,000 FEET
WITH NO SIGNIFICANT WEATHER AND/OR OBSTRUCTIONS TO VISIBILITY.

KYZ001>023-026-027-061>063-070>075-181300-
WESTERN AND SOUTH CENTRAL KENTUCKY

CITY           SKY/WX    TMP DP  RH WIND       PRES   REMARKS
PADUCAH        CLOUDY    68  58  70 S9        29.57S
HENDERSON      CLOUDY    64  57  78 S17G24    29.56F
OWENSBORO      CLOUDY    63  56  78 S18       29.60F
HOPKINSVILLE   CLOUDY    63  55  76 S12G20    29.66F
BOWLING GREEN  CLOUDY    62  52  69 S18G28    29.71F
GLASGOW        RAIN      60  51  73 S13G25    29.72S
$$

KYZ024-025-028>034-038-045-046-053-181300-
NORTH CENTRAL KENTUCKY

CITY           SKY/WX    TMP DP  RH WIND       PRES   REMARKS
LOUISVILLE/SDF CLOUDY    64  51  62 S22G30    29.62F
LOUISVILLE/LOU CLOUDY    63  52  67 S17G29    29.63F
FORT KNOX      CLOUDY    61  50  67 S21G31    29.63F
$$

KYZ035>037-039>044-047>052-055>060-089>105-181300-
NORTHEAST KENTUCKY

CITY           SKY/WX    TMP DP  RH WIND       PRES   REMARKS
LEXINGTON      CLOUDY    57  47  69 S20G29    29.69S
COVINGTON      CLOUDY    59  48  67 S20G33    29.58F
FRANKFORT      CLOUDY    59  46  62 S21G28    29.65F
$$

KYZ054-064>069-076>088-106>120-181300-
SOUTHEAST KENTUCKY

CITY           SKY/WX    TMP DP  RH WIND       PRES   REMARKS
JACKSON        CLOUDY    58  38  47 S9G17     29.77S
LONDON         CLOUDY    58  40  51 S13G22    29.79F
SOMERSET       CLOUDY    57  43  58 S10       29.79F
MIDDLESBORO    CLOUDY    56  40  53 S12G24    29.88F
MONTICELLO     PTSUNNY   59  47  64 S12G29    29.78F
$$





USA.gov is the U.S. government's official web portal to all federal, state and local government web resources and services.